Regional Weather Roundup
Issued by NWS

Home | Current Version | Previous Version | Graphics & Text | Print | Product List | Glossary On
Versions: 1 2 3 4 5 6 7 8 9 10 11 12 13 14 15 16 17 18 19 20 21 22 23 24 25 26 27 28 29 30 31 32 33 34 35 36 37 38 39 40 41 42 43 44 45 46 47 48 49 50
000
ASUS43 KOAX 300710
RWRNE

WEATHER ROUNDUP FOR NEBRASKA
NATIONAL WEATHER SERVICE OMAHA NE
200 AM CDT TUE SEP 30 2014

NOTES: SATELLITE DATA IS BEING USED TO AUGMENT CLOUD COVER ABOVE
       12000 FEET.
       "FAIR" INDICATES FEW OR NO CLOUDS BELOW 12,000 FEET WITH NO
       SIGNIFICANT WEATHER AND/OR OBSTRUCTIONS TO VISIBILITY.

  * THESE STATIONS DO NOT REPORT WEATHER SUCH AS RAIN...SNOW OR FOG.

NEZ001>004-019>022-054>056-300800-
NEBRASKA PANHANDLE

CITY           SKY/WX    TMP DP  RH WIND       PRES   REMARKS
SCOTTSBLUFF    HVY RAIN  51  50  96 W26G38    29.64R FOG
ALLIANCE       LGT RAIN  56  54  93 SE38G47   29.56F FOG
CHADRON        LGT RAIN  57  56  96 SE7       29.61R
KIMBALL        RAIN      47  45  92 W25G35    29.75S
SIDNEY         LGT RAIN  50  45  83 W26G36    29.75S
$$

NEZ057>060-069>072-079>082-300800-
SOUTHWEST NEBRASKA

CITY           SKY/WX    TMP DP  RH WIND       PRES   REMARKS
NORTH PLATTE   CLOUDY    59  56  89 SE12      29.76S
IMPERIAL       PTCLDY    57  54  89 S16       29.77S
LEXINGTON      CLOUDY    62  58  87 E6        29.78F
MCCOOK         MOCLDY    59  57  93 S12       29.80F
OGALLALA       CLEAR     58  56  91 S21G26    29.71F
$$

NEZ005>010-023>029-035>040-094-300800-
NORTH CENTRAL NEBRASKA

CITY           SKY/WX    TMP DP  RH WIND       PRES   REMARKS
VALENTINE      LGT RAIN  65  55  70 SE26G37   29.75F
AINSWORTH      MOCLDY    67  53  59 SE20G28   29.78F
BROKEN BOW     CLOUDY    63  56  78 S8        29.81F
O`NEILL        CLOUDY    66  59  77 SE16G22   29.85F
ORD            CLOUDY    67  55  65 SE12      29.82F
THEDFORD       LGT RAIN  60  57  91 SE12      29.75F
$$

NEZ041-046>049-061>064-073>077-083>087-300800-
SOUTH CENTRAL NEBRASKA

CITY           SKY/WX    TMP DP  RH WIND       PRES   REMARKS
GRAND ISLAND   MOCLDY    67  57  70 SE12      29.87F
AURORA         MOCLDY    66  57  73 SE12      29.89F
HASTINGS       CLOUDY    69  54  58 SE14      29.87F
HEBRON         PTCLDY    67  57  68 S9        29.90F
HOLDREGE       CLOUDY    67  54  63 SE15G22   29.79F
KEARNEY *      CLOUDY    66  55  68 SE18G24   29.83F
YORK           PTCLDY    64  57  77 SE9       29.90F
$$

NEZ011>018-030>034-042>045-300800-
NORTHEAST NEBRASKA

CITY           SKY/WX    TMP DP  RH WIND       PRES   REMARKS
NORFOLK        MOCLDY    62  61  96 E10       29.91F
ALBION         MOCLDY    63  55  76 SE9       29.88F
BLAIR          MOCLDY    64  61  88 E8        29.95F
COLUMBUS *     PTCLDY    61  55  82 E5        29.92F
FREMONT        MOCLDY    66  60  81 E9        29.94S
TEKAMAH        MOCLDY    62  59  90 E5        29.96F
WAYNE          CLOUDY    61  60  95 SE14      29.94F FOG
$$

NEZ050>053-065>068-078-088>093-300800-
SOUTHEAST NEBRASKA

CITY           SKY/WX    TMP DP  RH WIND       PRES   REMARKS
LINCOLN        MOCLDY    64  57  78 S8        29.92F
OMAHA EPPLEY   MOCLDY    66  60  81 E7        29.95F
BEATRICE       MOCLDY    66  58  75 SE6       29.92F
FALLS CITY     CLOUDY    63  58  83 SE5       29.94F
NEBRASKA CITY  MOCLDY    62  55  75 S5        29.95F
PLATTSMOUTH    MOCLDY    64  53  67 SE6       29.94F
$$

NEZ044-045-051>053-067-300800-
OMAHA AREA

CITY           SKY/WX    TMP DP  RH WIND       PRES   REMARKS
OMAHA EPPLEY   MOCLDY    66  60  81 E7        29.95F
BLAIR          MOCLDY    64  61  88 E8        29.95F
FREMONT        MOCLDY    66  60  81 E9        29.94S
MILLARD        MOCLDY    65  57  75 SE3       29.94F
OFFUTT AFB     MOCLDY    62  62  99 NE8       29.94F
PLATTSMOUTH    MOCLDY    64  53  67 SE6       29.94F
WAHOO          FAIR      60  55  83 E5        29.93F
$$



USA.gov is the U.S. government's official web portal to all federal, state and local government web resources and services.